DW9918 Weather Reports


Display with metric or nautical units.
time (UTC)temp
F
wind
direction
speed
MPH
gust
MPH
rain 1hr
in
rain 24hr
in
rain mn
in
humidity
%
barometer
mb
20260905154526 88 89 11.0 15.0 0.00 0.00 0.00 56 1015.5
20260905154127 89 84 11.0 17.0 0.00 0.00 0.00 55 1015.6
20260905153203 89 96 13.0 17.0 0.00 0.00 0.00 55 1015.6
20260905153028 89 90 12.0 17.0 0.00 0.00 0.00 56 1015.5
20260905152136 95 75 7.0 10.0 0.00 0.00 0.00 46 1015.5
20260905151523 95 301 3.0 7.0 0.00 0.00 0.00 34 1015.3
20260905151129 96 305 2.0 7.0 0.00 0.00 0.00 35 1015.4
20260905150141 96 231 5.0 8.0 0.00 0.00 0.00 34 1015.5
20260905150018 95 302 4.0 8.0 0.00 0.00 0.00 34 1015.3
20260905145127 96 284 3.0 6.0 0.00 0.00 0.00 34 1015.5
20260905144513 96 250 0.0 7.0 0.00 0.00 0.00 34 1015.3
20260905144132 97 319 3.0 7.0 0.00 0.00 0.00 34 1015.4
20260905143139 96 217 1.0 6.0 0.00 0.00 0.00 34 1015.5
20260905143008 95 180 1.0 8.0 0.00 0.00 0.00 34 1015.4
20260905142155 95 257 5.0 9.0 0.00 0.00 0.00 34 1015.6
20260905141530 95 283 6.0 12.0 0.00 0.00 0.00 34 1015.5
20260905141129 95 294 5.0 12.0 0.00 0.00 0.00 35 1015.5
20260905140126 95 255 4.0 11.0 0.00 0.00 0.00 34 1015.6
20260905140031 94 259 7.0 11.0 0.00 0.00 0.00 34 1015.6
20260905135220 95 295 5.0 12.0 0.00 0.00 0.00 35 1015.8
20260905134529 95 287 7.0 12.0 0.00 0.00 0.00 34 1015.8
20260905134127 95 304 3.0 7.0 0.00 0.00 0.00 36 1016.0
20260905133142 95 205 4.0 9.0 0.00 0.00 0.00 34 1016.1
20260905133023 94 219 4.0 9.0 0.00 0.00 0.00 35 1015.9
20260905132147 94 261 0.0 11.0 0.00 0.00 0.00 36 1016.1
20260905131516 94 304 7.0 11.0 0.00 0.00 0.00 35 1016.1
20260905131200 94 316 4.0 9.0 0.00 0.00 0.00 35 1016.2
20260905130129 94 300 7.0 10.0 0.00 0.00 0.00 34 1016.2
20260905130015 93 245 7.0 10.0 0.00 0.00 0.00 34 1016.2
20260905125136 93 309 4.0 13.0 0.00 0.00 0.00 35 1016.3
20260905124538 93 306 3.0 10.0 0.00 0.00 0.00 36 1016.4
20260905124126 94 264 6.0 10.0 0.00 0.00 0.00 34 1016.5
20260905123137 93 321 4.0 13.0 0.00 0.00 0.00 35 1016.6
20260905123032 93 283 3.0 13.0 0.00 0.00 0.00 35 1016.6
20260905122141 93 304 7.0 14.0 0.00 0.00 0.00 35 1016.7
20260905121529 92 266 7.0 14.0 0.00 0.00 0.00 35 1016.6
20260905121129 92 299 2.0 9.0 0.00 0.00 0.00 37 1016.7
20260905120126 92 294 7.0 14.0 0.00 0.00 0.00 37 1016.8
20260905120027 92 292 9.0 14.0 0.00 0.00 0.00 36 1016.7
20260905115136 93 289 5.0 12.0 0.00 0.00 0.00 37 1016.9
20260905114522 92 312 4.0 9.0 0.00 0.00 0.00 37 1016.7
20260905114155 92 297 3.0 10.0 0.00 0.00 0.00 37 1016.8
20260905113129 92 307 8.0 13.0 0.00 0.00 0.00 36 1017.0
20260905113018 91 295 8.0 13.0 0.00 0.00 0.00 36 1016.8
20260905112144 91 304 6.0 13.0 0.00 0.00 0.00 38 1017.1
20260905111534 91 300 3.0 16.0 0.00 0.00 0.00 37 1016.9
20260905111130 92 330 4.0 16.0 0.00 0.00 0.00 38 1017.1
20260905110126 91 264 5.0 12.0 0.00 0.00 0.00 37 1017.2
20260905110033 90 286 7.0 13.0 0.00 0.00 0.00 37 1017.1
20260905105129 91 283 6.0 13.0 0.00 0.00 0.00 38 1017.1
20260905104507 90 277 11.0 14.0 0.00 0.00 0.00 37 1017.1
20260905104133 91 266 10.0 14.0 0.00 0.00 0.00 37 1017.2
20260905103126 90 311 8.0 16.0 0.00 0.00 0.00 38 1017.3
20260905103009 90 314 9.0 16.0 0.00 0.00 0.00 36 1017.1
20260905102129 90 314 11.0 16.0 0.00 0.00 0.00 37 1017.3
20260905101504 89 271 7.0 14.0 0.00 0.00 0.00 36 1017.0
20260905101202 90 304 10.0 15.0 0.00 0.00 0.00 37 1017.2
20260905100129 90 276 7.0 13.0 0.00 0.00 0.00 40 1017.2
20260905100003 89 308 5.0 14.0 0.00 0.00 0.00 41 1017.0
20260905095134 90 240 8.0 18.0 0.00 0.00 0.00 40 1017.4
20260905094508 89 304 8.0 13.0 0.00 0.00 0.00 42 1017.0
20260905094149 89 255 9.0 13.0 0.00 0.00 0.00 42 1017.3
20260905093141 89 282 6.0 12.0 0.00 0.00 0.00 45 1017.3
20260905093012 88 312 6.0 12.0 0.00 0.00 0.00 44 1017.2
20260905092135 88 302 8.0 14.0 0.00 0.00 0.00 45 1017.4
20260905091511 87 288 10.0 14.0 0.00 0.00 0.00 45 1017.3
20260905091134 88 293 7.0 11.0 0.00 0.00 0.00 46 1017.3
20260905090141 87 297 7.0 12.0 0.00 0.00 0.00 46 1017.3
20260905090006 86 280 7.0 12.0 0.00 0.00 0.00 46 1017.1
20260905085130 87 288 8.0 12.0 0.00 0.00 0.00 46 1017.2
20260905084505 86 297 9.0 15.0 0.00 0.00 0.00 45 1017.0
20260905084135 87 285 9.0 15.0 0.00 0.00 0.00 46 1017.1
20260905083143 86 284 11.0 14.0 0.00 0.00 0.00 47 1017.1
20260905083004 86 302 11.0 14.0 0.00 0.00 0.00 46 1016.8
20260905082125 86 276 8.0 13.0 0.00 0.00 0.00 45 1016.9
20260905081505 86 291 9.0 12.0 0.00 0.00 0.00 45 1016.7
20260905081132 86 281 9.0 12.0 0.00 0.00 0.00 46 1016.8
20260905080126 86 318 9.0 12.0 0.00 0.00 0.00 47 1016.7
20260905080018 85 307 8.0 12.0 0.00 0.00 0.00 48 1016.6
20260905075131 85 273 6.0 8.0 0.00 0.00 0.00 50 1016.7
20260905074514 84 302 3.0 5.0 0.00 0.00 0.00 53 1016.4
20260905074126 84 274 2.0 5.0 0.00 0.00 0.00 53 1016.5
20260905073129 83 236 2.0 5.0 0.00 0.00 0.00 56 1016.5
20260905073008 83 259 2.0 5.0 0.00 0.00 0.00 55 1016.4
20260905072138 82 212 3.0 5.0 0.00 0.00 0.00 57 1016.5
20260905071504 81 281 3.0 7.0 0.00 0.00 0.00 58 1016.4
20260905071131 81 239 3.0 6.0 0.00 0.00 0.00 59 1016.6
20260905070153 81 223 2.0 3.0 0.00 0.00 0.00 59 1016.4
20260905070005 80 243 1.0 3.0 0.00 0.00 0.00 60 1016.1
20260905065137 80 224 2.0 5.0 0.00 0.00 0.00 63 1016.3
20260905064524 78 243 1.0 4.0 0.00 0.00 0.00 64 1016.1
20260905064131 78 238 1.0 4.0 0.00 0.00 0.00 66 1016.3
20260905063135 76 177 1.0 4.0 0.00 0.00 0.00 69 1016.3
20260905063021 76 214 1.0 4.0 0.00 0.00 0.00 69 1016.1
20260905062132 75 222 2.0 4.0 0.00 0.00 0.00 71 1016.3
20260905061517 74 241 1.0 3.0 0.00 0.00 0.00 70 1016.1
20260905061157 75 214 0.0 3.0 0.00 0.00 0.00 71 1016.3
20260905060131 74 155 2.0 3.0 0.00 0.00 0.00 72 1016.1
20260905060013 73 160 2.0 3.0 0.00 0.00 0.00 71 1016.0
20260905055138 73 151 1.0 3.0 0.00 0.00 0.00 72 1016.3
20260905054508 72 139 0.0 3.0 0.00 0.00 0.00 72 1016.1
20260905054128 73 191 2.0 3.0 0.00 0.00 0.00 71 1016.3
20260905053129 74 165 0.0 0.0 0.00 0.00 0.00 72 1016.3
20260905053007 73 165 0.0 0.0 0.00 0.00 0.00 72 1016.1
20260905052136 72 165 0.0 2.0 0.00 0.00 0.00 74 1016.2
20260905051534 71 164 1.0 2.0 0.00 0.00 0.00 75 1016.0
20260905051138 71 164 2.0 2.0 0.00 0.00 0.00 77 1016.2
20260905050155 70 212 0.0 2.0 0.00 0.00 0.00 77 1016.1
20260905050031 70 231 1.0 2.0 0.00 0.00 0.00 77 1016.1
20260905045128 69 239 1.0 1.0 0.00 0.00 0.00 79 1016.3
20260905044524 68 239 1.0 1.0 0.00 0.00 0.00 75 1016.1
20260905044145 69 240 0.0 2.0 0.00 0.00 0.00 75 1016.2
20260905043131 70 227 0.0 2.0 0.00 0.00 0.00 73 1016.1
20260905043024 69 245 0.0 2.0 0.00 0.00 0.00 72 1016.0
20260905042140 70 233 2.0 2.0 0.00 0.00 0.00 75 1016.1
20260905041512 68 233 0.0 0.0 0.00 0.00 0.00 72 1016.0
20260905041130 69 241 0.0 0.0 0.00 0.00 0.00 73 1016.2
20260905040126 69 239 0.0 0.0 0.00 0.00 0.00 74 1016.1
20260905040009 68 239 0.0 0.0 0.00 0.00 0.00 73 1015.9
20260905035127 70 231 0.0 0.0 0.00 0.00 0.00 70 1015.9
20260905034537 70 224 0.0 0.0 0.00 0.00 0.00 69 1015.7
20260905034132 70 229 0.0 0.0 0.00 0.00 0.00 70 1016.0
20260905033132 70 221 0.0 1.0 0.00 0.00 0.00 72 1015.9
20260905033032 70 221 0.0 1.0 0.00 0.00 0.00 71 1015.8
20260905032159 71 238 1.0 1.0 0.00 0.00 0.00 71 1016.0
20260905031524 70 239 0.0 2.0 0.00 0.00 0.00 70 1015.8
20260905031134 71 221 0.0 2.0 0.00 0.00 0.00 71 1015.9
20260905030137 71 236 1.0 3.0 0.00 0.00 0.00 70 1016.1
20260905030032 71 248 1.0 3.0 0.00 0.00 0.00 69 1015.9
20260905025128 72 266 2.0 4.0 0.00 0.00 0.00 68 1016.2
20260905024518 71 245 3.0 4.0 0.00 0.00 0.00 68 1016.1
20260905024135 72 241 3.0 3.0 0.00 0.00 0.00 68 1016.2
20260905023134 72 271 2.0 4.0 0.00 0.00 0.00 67 1016.1
20260905023010 72 240 2.0 4.0 0.00 0.00 0.00 67 1016.0
20260905022137 73 246 2.0 3.0 0.00 0.00 0.00 66 1016.0
20260905021534 73 261 2.0 5.0 0.00 0.00 0.00 65 1015.9
20260905021130 73 266 3.0 5.0 0.00 0.00 0.00 66 1016.1
20260905020140 72 295 4.0 4.0 0.00 0.00 0.00 68 1016.1
20260905020036 72 291 4.0 4.0 0.00 0.00 0.00 67 1016.0
20260905015142 73 269 0.0 0.0 0.00 0.00 0.00 71 1016.1
20260905014505 71 268 0.0 0.0 0.00 0.00 0.00 70 1015.9
20260905014134 72 268 0.0 0.0 0.00 0.00 0.00 71 1016.0
20260905013133 72 221 0.0 0.0 0.00 0.00 0.00 72 1016.0
20260905013004 71 221 0.0 0.0 0.00 0.00 0.00 72 1016.0
20260905012136 71 224 0.0 0.0 0.00 0.00 0.00 75 1016.0
20260905011504 72 242 0.0 1.0 0.00 0.00 0.00 75 1015.9
20260905011138 72 240 0.0 1.0 0.00 0.00 0.00 72 1015.9
20260905010148 72 227 0.0 1.0 0.00 0.00 0.00 74 1015.8
20260905010019 72 227 0.0 1.0 0.00 0.00 0.00 73 1015.8
20260905005135 72 238 0.0 1.0 0.00 0.00 0.00 75 1015.8
20260905004515 72 238 0.0 1.0 0.00 0.00 0.00 75 1015.8
20260905004145 72 238 0.0 1.0 0.00 0.00 0.00 75 1015.8
20260905003131 71 213 0.0 1.0 0.00 0.00 0.00 78 1015.9
20260905003013 71 202 0.0 0.0 0.00 0.00 0.00 78 1015.9
20260905002148 71 226 0.0 0.0 0.00 0.00 0.00 82 1016.0
20260905001514 71 226 0.0 0.0 0.00 0.00 0.00 81 1016.1
20260905001136 71 212 0.0 0.0 0.00 0.00 0.00 82 1016.2
20260905000130 72 201 0.0 0.0 0.00 0.00 0.00 81 1016.3
20260905000004 72 201 0.0 0.0 0.00 0.00 0.00 81 1016.2
20260904235139 73 201 0.0 2.0 0.00 0.00 0.00 79 1016.3
20260904234507 73 229 0.0 3.0 0.00 0.00 0.00 78 1016.3
20260904234134 73 181 1.0 3.0 0.00 0.00 0.00 80 1016.4
20260904233137 73 167 0.0 1.0 0.00 0.00 0.00 83 1016.4
20260904233037 72 167 0.0 1.0 0.00 0.00 0.00 83 1016.3
20260904232140 73 169 0.0 0.0 0.00 0.00 0.00 85 1016.5
20260904231519 73 169 0.0 1.0 0.00 0.00 0.00 85 1016.4
20260904231142 73 169 0.0 1.0 0.00 0.00 0.00 85 1016.5
20260904230150 73 191 0.0 0.0 0.00 0.00 0.00 86 1016.6
20260904230014 73 190 0.0 0.0 0.00 0.00 0.00 86 1016.5
20260904225141 74 190 0.0 0.0 0.00 0.00 0.00 86 1016.6
20260904224508 73 190 0.0 0.0 0.00 0.00 0.00 86 1016.4
20260904224133 74 190 0.0 0.0 0.00 0.00 0.00 86 1016.6
20260904223205 75 190 0.0 1.0 0.00 0.00 0.00 85 1016.7
20260904223006 74 190 0.0 1.0 0.00 0.00 0.00 85 1016.6
20260904222127 75 167 0.0 1.0 0.00 0.00 0.00 85 1016.8
20260904221503 75 153 0.0 1.0 0.00 0.00 0.00 84 1016.7
20260904221138 76 141 0.0 1.0 0.00 0.00 0.00 84 1016.8
20260904220144 77 142 0.0 1.0 0.00 0.00 0.00 84 1016.8
20260904220023 76 142 0.0 2.0 0.00 0.00 0.00 84 1016.6
20260904214519 77 107 0.0 3.0 0.00 0.00 0.00 82 1016.7
20260904214132 78 107 0.0 3.0 0.00 0.00 0.00 83 1016.8
20260904213133 78 106 0.0 2.0 0.00 0.00 0.00 82 1016.8
20260904213024 77 86 0.0 2.0 0.00 0.00 0.00 81 1016.6
20260904212148 78 136 0.0 3.0 0.00 0.00 0.00 81 1016.7
20260904211511 78 156 1.0 3.0 0.00 0.00 0.00 80 1016.6
20260904211130 78 126 1.0 3.0 0.00 0.00 0.00 81 1016.8
20260904210131 78 131 1.0 2.0 0.00 0.00 0.00 80 1016.9
20260904210010 78 139 0.0 2.0 0.00 0.00 0.00 79 1016.8
20260904205131 79 137 1.0 4.0 0.00 0.00 0.00 79 1016.9
20260904204533 78 162 0.0 4.0 0.00 0.00 0.00 78 1016.8
20260904204134 79 155 0.0 3.0 0.00 0.00 0.00 79 1016.9
20260904203146 79 122 1.0 4.0 0.00 0.00 0.00 78 1017.0
20260904203027 79 172 1.0 4.0 0.00 0.00 0.00 78 1017.0
20260904202131 79 172 1.0 4.0 0.00 0.00 0.00 78 1017.0
20260904201527 78 113 0.0 3.0 0.00 0.00 0.00 77 1017.1
20260904201141 79 116 1.0 3.0 0.00 0.00 0.00 77 1017.1
20260904200127 79 118 0.0 4.0 0.00 0.00 0.00 76 1017.2
20260904200022 79 81 0.0 4.0 0.00 0.00 0.00 75 1017.1
20260904195130 80 134 0.0 5.0 0.00 0.00 0.00 75 1017.2
20260904194513 80 79 2.0 6.0 0.00 0.00 0.00 74 1017.1
20260904194127 80 96 4.0 6.0 0.00 0.00 0.00 74 1017.1
20260904193141 80 130 3.0 6.0 0.00 0.00 0.00 73 1017.2
20260904193027 79 105 3.0 6.0 0.00 0.00 0.00 73 1017.1
20260904192127 80 104 3.0 5.0 0.00 0.00 0.00 73 1017.2
20260904191531 79 108 3.0 5.0 0.00 0.00 0.00 72 1017.2
20260904190034 80 94 5.0 6.0 0.00 0.00 0.00 72 1017.0
20260904184527 80 98 2.0 5.0 0.00 0.00 0.00 70 1017.0
20260904183026 80 88 1.0 5.0 0.00 0.00 0.00 70 1017.1
20260904181528 80 103 2.0 5.0 0.00 0.00 0.00 70 1017.0
20260904180015 81 101 4.0 6.0 0.00 0.00 0.00 70 1016.7
20260904174508 81 94 5.0 8.0 0.00 0.00 0.00 69 1016.8
20260904173019 82 68 5.0 10.0 0.00 0.00 0.00 66 1017.0
20260904171509 83 115 6.0 11.0 0.00 0.00 0.00 65 1017.0
20260904170006 83 103 6.0 13.0 0.00 0.00 0.00 64 1017.2
20260904164503 84 108 8.0 13.0 0.00 0.00 0.00 65 1017.2
20260904163018 84 105 9.0 12.0 0.00 0.00 0.00 65 1017.2
20260904161515 84 83 11.0 16.0 0.00 0.00 0.00 64 1017.1
20260904160010 84 89 13.0 16.0 0.00 0.00 0.00 66 1017.2